Change the Weather History Date:

Monday, March 25, 2013

  Actual Average Record
Temperature  
Mean Temperature 30 °F 48 °F  
Max Temperature 37 °F 60 °F 93 °F (1907)
Min Temperature 22 °F 37 °F 2 °F (1955)
Degree Days  
Heating Degree Days 35 17  
Month to date heating degree days 633 514  
Since 1 July heating degree days 4255 4355  
Cooling Degree Days 0 0  
Month to date cooling degree days 0 0  
Year to date cooling degree days 0 0  
Moisture  
Dew Point 17 °F    
Average Humidity 59    
Maximum Humidity 74    
Minimum Humidity 44    
Precipitation  
Precipitation T in 0.09 in 1.41 in (1959)
Month to date precipitation 0.40 1.84  
Year to date precipitation 3.67 3.64  
Sea Level Pressure  
Sea Level Pressure 30.32 in    
Wind  
Wind Speed 16 mph (NW)    
Max Wind Speed 29 mph    
Max Gust Speed 33 mph    
Visibility 10 miles    
Events Snow    
T = Trace of Precipitation, MM = Missing Value Source: NWS Daily Summary

Daily Weather History Graph

Daily Weather History Graph

Search for Another Location

Airport or City:

Trip Planner

Search our weather history database for the weather conditions in past years. The results will help you decide how hot, cold, wet, or windy it might be!

Date:

Astronomy

Mar. 25, 2013 Rise Set
Actual Time 7:25 AM CDT 7:47 PM CDT
Civil Twilight 6:59 AM CDT 8:14 PM CDT
Nautical Twilight 6:27 AM CDT 8:45 PM CDT
Astronomical Twilight 5:56 AM CDT 9:17 PM CDT
Moon 6:21 PM CDT (3/25) 6:09 AM CDT (3/25)
Length of Visible Light 13h 15m
Length of Day
12h 21m
Waxing Gibbous, 96% of the Moon is Illuminated
Mar 25
Waxing Gibbous
Mar 27
Full
Apr 2
Last Quarter
Apr 10
New
Apr 18
First Quarter

Hourly Weather History & Observations

Time (CDT) Temp. Windchill Dew Point Humidity Pressure Visibility Wind Dir Wind Speed Gust Speed Precip Events Conditions
12:53 AM 27.0 °F 13.9 °F 16.0 °F 63% 30.24 in 10.0 mi NNW 18.4 mph - N/A   Clear
1:53 AM 25.0 °F 13.1 °F 17.1 °F 72% 30.24 in 10.0 mi NW 13.8 mph - N/A   Clear
2:53 AM 25.0 °F 12.2 °F 17.1 °F 72% 30.24 in 10.0 mi WNW 16.1 mph - N/A   Clear
3:53 AM 24.1 °F 11.0 °F 16.0 °F 71% 30.24 in 10.0 mi WNW 16.1 mph - N/A   Clear
4:53 AM 24.1 °F 9.4 °F 16.0 °F 71% 30.24 in 10.0 mi NW 20.7 mph 28.8 mph N/A   Clear
5:25 AM 24.8 °F 10.7 °F 17.6 °F 74% 30.21 in 10.0 mi NW 19.6 mph - N/A   Mostly Cloudy
5:53 AM 24.1 °F 9.4 °F 16.0 °F 71% 30.26 in 10.0 mi NW 20.7 mph - 0.00 in   Mostly Cloudy
6:03 AM 24.8 °F 10.3 °F 15.8 °F 69% 30.22 in 10.0 mi NW 20.7 mph - N/A   Scattered Clouds
6:44 AM 24.8 °F 10.7 °F 17.6 °F 74% 30.24 in 9.0 mi NW 19.6 mph - 0.00 in Snow Light Snow
6:53 AM 25.0 °F 11.7 °F 17.1 °F 72% 30.28 in 9.0 mi NW 17.3 mph 26.5 mph 0.00 in   Overcast
7:53 AM 24.1 °F 11.5 °F 17.1 °F 75% 30.31 in 10.0 mi NW 15.0 mph - N/A   Scattered Clouds
8:53 AM 26.1 °F 13.1 °F 18.0 °F 71% 30.33 in 10.0 mi NW 17.3 mph - N/A   Clear
9:53 AM 28.9 °F 14.8 °F 18.0 °F 64% 30.34 in 9.0 mi NW 24.2 mph 29.9 mph 0.00 in   Partly Cloudy
10:53 AM 32.0 °F 19.2 °F 18.0 °F 56% 30.35 in 9.0 mi NNW 23.0 mph 32.2 mph N/A   Scattered Clouds
11:53 AM 33.1 °F 20.1 °F 18.0 °F 54% 30.36 in 9.0 mi NNW 25.3 mph 29.9 mph N/A   Overcast
12:53 PM 33.1 °F 20.9 °F 17.1 °F 52% 30.36 in 9.0 mi NNW 21.9 mph 33.4 mph N/A   Overcast
1:53 PM 33.1 °F 21.5 °F 17.1 °F 52% 30.36 in 9.0 mi NNW 19.6 mph 31.1 mph N/A   Overcast
2:53 PM 34.0 °F 23.0 °F 17.1 °F 50% 30.35 in 9.0 mi NW 18.4 mph - N/A   Overcast
3:53 PM 36.0 °F 25.6 °F 16.0 °F 44% 30.34 in 9.0 mi NW 18.4 mph - N/A   Overcast
4:53 PM 34.0 °F 22.1 °F 16.0 °F 48% 30.35 in 10.0 mi NW 21.9 mph 25.3 mph N/A   Overcast
5:53 PM 34.0 °F 23.8 °F 17.1 °F 50% 30.36 in 9.0 mi NNW 16.1 mph - 0.00 in   Overcast
6:53 PM 33.1 °F 21.9 °F 17.1 °F 52% 30.37 in 10.0 mi NW 18.4 mph - N/A   Overcast
7:53 PM 30.9 °F 21.2 °F 17.1 °F 57% 30.39 in 10.0 mi NW 12.7 mph - N/A   Mostly Cloudy
8:53 PM 28.9 °F 21.1 °F 18.0 °F 64% 30.40 in 10.0 mi NNW 8.1 mph - N/A   Scattered Clouds
9:53 PM 28.0 °F 21.7 °F 18.0 °F 66% 30.41 in 10.0 mi NNW 5.8 mph - N/A   Clear
10:53 PM 25.0 °F 20.7 °F 17.1 °F 72% 30.42 in 10.0 mi NW 3.5 mph - N/A   Clear
11:53 PM 24.1 °F 18.2 °F 17.1 °F 75% 30.43 in 10.0 mi WNW 4.6 mph - N/A   Clear